Regional Weather Roundup
Issued by NWS Cleveland, OH

Home | Current Version | Previous Version | Graphics & Text | Print | Product List | Glossary On
Versions: 1 2 3 4 5 6 7 8 9 10 11 12 13 14 15 16 17 18 19 20 21 22 23 24 25 26 27 28 29 30 31 32 33 34 35 36 37 38 39 40 41 42 43 44 45 46 47 48 49 50
000
ASUS41 KCLE 270002
RWRCLE
OHIO REGIONAL WEATHER ROUNDUP
NATIONAL WEATHER SERVICE CLEVELAND, OH
800 PM EDT TUE JUL 26 2016

NOTE: "FAIR" INDICATES FEW OR NO CLOUDS BELOW 12,000 FEET WITH NO
SIGNIFICANT WEATHER AND/OR OBSTRUCTIONS TO VISIBILITY.

OHZ001>008-015>018-024>027-034-035-043-044-270100-
   NORTHWEST OHIO

CITY           SKY/WX    TMP DP  RH WIND       PRES   REMARKS
DEFIANCE       CLEAR     84  62  47 E3        30.00R
FINDLAY        PTCLDY    84  61  45 E6        30.00R
TOLEDO EXPRESS PTCLDY    80  65  59 S3        30.00R
TOLEDO EXEC    CLEAR     83  59  44 SE8       30.01R
LIMA           MOCLDY    82  68  62 CALM      30.01S
$$

OHZ009>014-019>023-028>033-038-089-270100-
   NORTHEAST OHIO

CITY           SKY/WX    TMP DP  RH WIND       PRES   REMARKS
CLE-HOPKINS    PTCLDY    82  53  36 N8        30.03S
CLE-LAKEFRONT  CLEAR     79  63  57 N5        30.00S
CUY CO. ARPT   MOCLDY   N/A N/A N/A E7        30.02S
LORAIN-ELYRIA  CLEAR     78  57  48 NE6       30.02S
ASHTABULA      PTCLDY    77  60  55 CALM      30.03R
AKRON-CANTON   CLOUDY    80  55  42 N12       30.01S
WOOSTER        MOCLDY    79  57  46 N8        30.02S
MANSFIELD      MOCLDY    80  60  50 NE7       30.03R
YOUNGSTOWN     MOCLDY    78  60  53 N8        30.02S
$$

OHZ042-051>053-060>062-070>072-077>081-270100-
  SOUTHWEST OHIO

CITY           SKY/WX    TMP DP  RH WIND       PRES   REMARKS
CINC-COVINGTON CLOUDY    82  73  74 CALM      30.00S
CINC-LUNKEN    CLOUDY    80  77  90 SW5       29.99S
HAMILTON       CLOUDY    81  74  79 CALM      30.00S
DAYTON         CLOUDY    81  66  60 NW3       30.01F
WRIGHT-PAT AFB CLOUDY    82  70  68 NW5       30.00R
DAYTON GENERAL CLOUDY    82  69  64 CALM      30.00R
WILMINGTON     CLEAR     80  72  76 CALM      30.00S
$$

OHZ036-037-039>041-045>050-054>059-063>069-073>076-082>088-270100-
  CENTRAL AND SOUTHEAST OHIO

CITY           SKY/WX    TMP DP  RH WIND       PRES   REMARKS
COLUMBUS       CLOUDY    80  71  74 SW3       29.98S
OSU AIRPORT    PTCLDY    81  68  64 NW5       29.99R
BOLTON FIELD   PTCLDY    79  74  83 SW5       30.00S
RICKENBACK AFB PTCLDY    79  73  82 SW3       29.99R
NEWARK         CLOUDY    80  71  74 CALM      29.99R
MARION         PTCLDY    79  64  60 NE8       30.01S
LANCASTER      CLOUDY    77  74  90 W3        30.00S
ZANESVILLE     CLOUDY    83  71  67 SW5       30.00R
NEW PHILLY     MOCLDY    86  63  45 N3        29.99S
$$



USA.gov is the U.S. government's official web portal to all federal, state and local government web resources and services.